Time,TemperatureF,DewpointF,PressureIn,WindDirection,WindDirectionDegrees,WindSpeedMPH,WindSpeedGustMPH,Humidity,HourlyPrecipIn,Conditions,Clouds,dailyrainin,SolarRadiationWatts/m^2,SoftwareType,DateUTC
2013-04-04 00:00:00,28.4,14.0,29.97,SE,134,0.0,0.0,56,0.00,,,0.01,0,weatherlink.com 1.10,2013-04-04 06:00:00,
2013-04-04 00:15:00,29.2,15.0,29.97,SE,134,0.0,1.0,55,0.00,,,0.00,0,weatherlink.com 1.10,2013-04-04 06:15:00,
2013-04-04 00:30:00,28.7,14.0,29.97,SE,134,0.0,3.0,55,0.00,,,0.00,0,weatherlink.com 1.10,2013-04-04 06:30:00,
2013-04-04 00:45:00,29.2,14.0,29.96,SE,134,0.0,1.0,53,0.00,,,0.00,0,weatherlink.com 1.10,2013-04-04 06:45:00,
2013-04-04 01:00:00,29.7,14.0,29.96,WSW,241,0.0,1.0,53,0.00,,,0.00,0,weatherlink.com 1.10,2013-04-04 07:00:00,
2013-04-04 01:15:00,29.7,15.0,29.97,WSW,241,0.0,0.0,54,0.00,,,0.00,0,weatherlink.com 1.10,2013-04-04 07:15:00,
2013-04-04 01:30:00,28.9,14.0,29.97,WSW,241,0.0,1.0,53,0.00,,,0.00,0,weatherlink.com 1.10,2013-04-04 07:30:00,
2013-04-04 01:45:00,29.5,13.0,29.96,WSW,241,0.0,0.0,51,0.00,,,0.00,0,weatherlink.com 1.10,2013-04-04 07:45:00,
2013-04-04 02:00:00,29.7,13.0,29.95,WSW,254,0.0,6.0,50,0.00,,,0.00,0,weatherlink.com 1.10,2013-04-04 08:00:00,
2013-04-04 02:15:00,29.9,13.0,29.95,West,261,0.0,5.0,50,0.00,,,0.00,0,weatherlink.com 1.10,2013-04-04 08:15:00,
2013-04-04 02:30:00,30.0,13.0,29.95,West,261,0.0,1.0,49,0.00,,,0.00,0,weatherlink.com 1.10,2013-04-04 08:30:00,
2013-04-04 02:45:00,30.4,13.0,29.95,West,261,0.0,2.0,48,0.00,,,0.00,0,weatherlink.com 1.10,2013-04-04 08:45:00,
2013-04-04 03:00:00,30.2,13.0,29.94,West,261,0.0,0.0,49,0.00,,,0.00,0,weatherlink.com 1.10,2013-04-04 09:00:00,
2013-04-04 03:15:00,30.0,13.0,29.94,West,261,0.0,0.0,50,0.00,,,0.00,0,weatherlink.com 1.10,2013-04-04 09:15:00,
2013-04-04 03:30:00,29.0,13.0,29.94,West,261,0.0,0.0,51,0.00,,,0.00,0,weatherlink.com 1.10,2013-04-04 09:30:00,
2013-04-04 03:45:00,29.7,13.0,29.94,West,263,0.0,2.0,51,0.00,,,0.00,0,weatherlink.com 1.10,2013-04-04 09:45:00,
2013-04-04 04:15:00,29.7,14.0,29.95,West,263,0.0,2.0,52,0.00,,,0.00,0,weatherlink.com 1.10,2013-04-04 10:15:00,
2013-04-04 04:30:00,28.7,13.0,29.94,West,263,1.0,2.0,53,0.00,,,0.00,0,weatherlink.com 1.10,2013-04-04 10:30:00,
2013-04-04 04:45:00,27.2,13.0,29.95,West,263,0.0,0.0,56,0.00,,,0.00,0,weatherlink.com 1.10,2013-04-04 10:45:00,
2013-04-04 05:00:00,27.5,14.0,29.95,West,263,1.0,1.0,56,0.00,,,0.00,0,weatherlink.com 1.10,2013-04-04 11:00:00,
2013-04-04 05:15:00,27.3,14.0,29.94,WNW,295,1.0,2.0,57,0.00,,,0.00,0,weatherlink.com 1.10,2013-04-04 11:15:00,
2013-04-04 05:30:00,27.2,14.0,29.94,WNW,295,0.0,2.0,58,0.00,,,0.00,0,weatherlink.com 1.10,2013-04-04 11:30:00,
2013-04-04 05:45:00,27.8,14.0,29.94,WNW,294,0.0,2.0,57,0.00,,,0.00,0,weatherlink.com 1.10,2013-04-04 11:45:00,
2013-04-04 06:00:00,28.2,15.0,29.94,WSW,253,0.0,4.0,58,0.00,,,0.00,0,weatherlink.com 1.10,2013-04-04 12:00:00,
2013-04-04 06:15:00,28.1,15.0,29.94,WSW,255,1.0,2.0,59,0.00,,,0.00,0,weatherlink.com 1.10,2013-04-04 12:15:00,
2013-04-04 06:30:00,27.5,15.0,29.95,WSW,255,0.0,1.0,59,0.00,,,0.00,0,weatherlink.com 1.10,2013-04-04 12:30:00,
2013-04-04 06:45:00,27.4,15.0,29.95,WSW,255,0.0,1.0,60,0.00,,,0.00,5,weatherlink.com 1.10,2013-04-04 12:45:00,
2013-04-04 07:00:00,27.5,16.0,29.95,West,263,2.0,3.0,61,0.00,,,0.00,16,weatherlink.com 1.10,2013-04-04 13:00:00,
2013-04-04 07:15:00,28.6,16.0,29.95,West,265,2.0,3.0,59,0.00,,,0.00,40,weatherlink.com 1.10,2013-04-04 13:15:00,
2013-04-04 07:30:00,29.6,17.0,29.95,West,265,0.0,2.0,59,0.00,,,0.00,107,weatherlink.com 1.10,2013-04-04 13:30:00,
2013-04-04 07:46:00,31.2,18.0,29.96,West,265,0.0,1.0,58,0.00,,,0.00,151,weatherlink.com 1.10,2013-04-04 13:46:00,
2013-04-04 08:01:00,32.9,19.0,29.96,West,265,0.0,2.0,56,0.00,,,0.00,200,weatherlink.com 1.10,2013-04-04 14:01:00,
2013-04-04 08:16:00,33.9,19.0,29.96,WNW,300,2.0,6.0,55,0.00,,,0.00,250,weatherlink.com 1.10,2013-04-04 14:16:00,
2013-04-04 09:01:00,35.2,21.0,29.94,NW,304,2.0,5.0,56,0.00,,,0.00,417,weatherlink.com 1.10,2013-04-04 15:01:00,
2013-04-04 09:31:00,37.6,19.0,29.95,WNW,291,0.0,8.0,48,0.00,,,0.00,529,weatherlink.com 1.10,2013-04-04 15:31:00,
2013-04-04 09:46:00,38.5,20.0,29.95,NNW,334,2.0,7.0,47,0.00,,,0.00,592,weatherlink.com 1.10,2013-04-04 15:46:00,
2013-04-04 10:01:00,39.4,19.0,29.95,West,265,1.0,10.0,44,0.00,,,0.00,633,weatherlink.com 1.10,2013-04-04 16:01:00,
2013-04-04 10:16:00,40.6,20.0,29.95,West,281,2.0,7.0,43,0.00,,,0.00,671,weatherlink.com 1.10,2013-04-04 16:16:00,
2013-04-04 10:46:00,42.0,20.0,29.94,West,272,4.0,6.0,42,0.00,,,0.00,775,weatherlink.com 1.10,2013-04-04 16:46:00,
2013-04-04 11:02:00,42.7,19.0,29.95,WNW,291,1.0,14.0,38,0.00,,,0.00,795,weatherlink.com 1.10,2013-04-04 17:02:00,
2013-04-04 11:17:00,42.8,19.0,29.94,SW,230,6.0,11.0,38,0.00,,,0.00,831,weatherlink.com 1.10,2013-04-04 17:17:00,
2013-04-04 11:32:00,43.9,21.0,29.94,NW,314,2.0,6.0,40,0.00,,,0.00,872,weatherlink.com 1.10,2013-04-04 17:32:00,
2013-04-04 12:02:00,45.9,20.0,29.93,WNW,297,3.0,8.0,36,0.00,,,0.00,916,weatherlink.com 1.10,2013-04-04 18:02:00,
2013-04-04 12:17:00,45.6,19.0,29.93,NNW,327,3.0,11.0,34,0.00,,,0.00,925,weatherlink.com 1.10,2013-04-04 18:17:00,
2013-04-04 12:32:00,46.4,19.0,29.92,NNW,342,3.0,7.0,33,0.00,,,0.00,942,weatherlink.com 1.10,2013-04-04 18:32:00,
2013-04-04 12:47:00,46.4,19.0,29.91,NNW,346,3.0,8.0,33,0.00,,,0.00,954,weatherlink.com 1.10,2013-04-04 18:47:00,
2013-04-04 13:17:00,49.0,23.0,29.88,NW,318,1.0,8.0,36,0.00,,,0.00,962,weatherlink.com 1.10,2013-04-04 19:17:00,
2013-04-04 13:32:00,49.4,19.0,29.88,West,273,5.0,7.0,30,0.00,,,0.00,1014,weatherlink.com 1.10,2013-04-04 19:32:00,
2013-04-04 13:47:00,49.0,19.0,29.87,West,270,6.0,9.0,30,0.00,,,0.00,988,weatherlink.com 1.10,2013-04-04 19:47:00,
2013-04-04 14:17:00,51.6,19.0,29.87,NW,317,1.0,7.0,28,0.00,,,0.00,940,weatherlink.com 1.10,2013-04-04 20:17:00,
2013-04-04 14:32:00,52.0,21.0,29.86,WNW,288,6.0,8.0,30,0.00,,,0.00,904,weatherlink.com 1.10,2013-04-04 20:32:00,
2013-04-04 14:47:00,51.9,18.0,29.85,WNW,295,0.0,8.0,26,0.00,,,0.00,882,weatherlink.com 1.10,2013-04-04 20:47:00,
2013-04-04 15:02:00,52.2,22.0,29.84,West,274,5.0,7.0,31,0.00,,,0.00,854,weatherlink.com 1.10,2013-04-04 21:02:00,
2013-04-04 15:17:00,53.2,19.0,29.84,NW,317,3.0,6.0,26,0.00,,,0.00,823,weatherlink.com 1.10,2013-04-04 21:17:00,
2013-04-04 15:32:00,52.0,19.0,29.84,WNW,297,0.0,9.0,27,0.00,,,0.00,204,weatherlink.com 1.10,2013-04-04 21:32:00,
2013-04-04 15:48:00,51.9,19.0,29.83,NNW,331,1.0,8.0,27,0.00,,,0.00,93,weatherlink.com 1.10,2013-04-04 21:48:00,
2013-04-04 16:02:00,52.3,16.0,29.83,WNW,288,2.0,6.0,24,0.00,,,0.00,696,weatherlink.com 1.10,2013-04-04 22:02:00,
2013-04-04 16:17:00,52.3,17.0,29.82,WNW,284,2.0,7.0,25,0.00,,,0.00,531,weatherlink.com 1.10,2013-04-04 22:17:00,
2013-04-04 16:32:00,53.1,20.0,29.82,NW,306,3.0,8.0,27,0.00,,,0.00,621,weatherlink.com 1.10,2013-04-04 22:32:00,
2013-04-04 16:47:00,53.4,17.0,29.82,NW,323,2.0,8.0,24,0.00,,,0.00,573,weatherlink.com 1.10,2013-04-04 22:47:00,
2013-04-04 17:02:00,53.5,20.0,29.82,WSW,241,2.0,6.0,27,0.00,,,0.00,533,weatherlink.com 1.10,2013-04-04 23:02:00,
2013-04-04 17:18:00,53.4,18.0,29.82,WNW,291,1.0,6.0,25,0.00,,,0.00,431,weatherlink.com 1.10,2013-04-04 23:18:00,
2013-04-04 17:33:00,53.1,16.0,29.82,WNW,282,2.0,8.0,23,0.00,,,0.00,308,weatherlink.com 1.10,2013-04-04 23:33:00,
2013-04-04 17:48:00,51.5,15.0,29.82,WSW,255,1.0,6.0,23,0.00,,,0.00,213,weatherlink.com 1.10,2013-04-04 23:48:00,
2013-04-04 18:03:00,50.5,17.0,29.82,WNW,284,2.0,9.0,26,0.00,,,0.00,160,weatherlink.com 1.10,2013-04-05 00:03:00,
2013-04-04 18:18:00,49.3,16.0,29.81,WSW,257,1.0,7.0,26,0.00,,,0.00,142,weatherlink.com 1.10,2013-04-05 00:18:00,
2013-04-04 18:33:00,47.9,16.0,29.81,WNW,295,2.0,9.0,28,0.00,,,0.00,70,weatherlink.com 1.10,2013-04-05 00:33:00,
2013-04-04 18:48:00,46.4,17.0,29.82,West,278,1.0,6.0,31,0.00,,,0.00,46,weatherlink.com 1.10,2013-04-05 00:48:00,
2013-04-04 19:03:00,45.4,17.0,29.82,West,269,1.0,4.0,32,0.00,,,0.00,25,weatherlink.com 1.10,2013-04-05 01:03:00,
2013-04-04 19:18:00,44.2,19.0,29.82,NNW,336,0.0,3.0,37,0.00,,,0.00,11,weatherlink.com 1.10,2013-04-05 01:18:00,
2013-04-04 19:33:00,43.1,17.0,29.81,WSW,248,0.0,3.0,35,0.00,,,0.00,0,weatherlink.com 1.10,2013-04-05 01:33:00,
2013-04-04 19:48:00,42.8,15.0,29.81,West,274,0.0,5.0,32,0.00,,,0.00,0,weatherlink.com 1.10,2013-04-05 01:48:00,
2013-04-04 20:03:00,42.9,15.0,29.81,West,271,2.0,4.0,32,0.00,,,0.00,0,weatherlink.com 1.10,2013-04-05 02:03:00,
2013-04-04 20:18:00,42.8,15.0,29.81,West,259,0.0,3.0,32,0.00,,,0.00,0,weatherlink.com 1.10,2013-04-05 02:18:00,
2013-04-04 20:33:00,42.8,15.0,29.81,West,266,1.0,3.0,32,0.00,,,0.00,0,weatherlink.com 1.10,2013-04-05 02:33:00,
2013-04-04 20:48:00,42.8,15.0,29.80,West,266,0.0,2.0,32,0.00,,,0.00,0,weatherlink.com 1.10,2013-04-05 02:48:00,
2013-04-04 21:03:00,42.1,15.0,29.81,West,266,1.0,2.0,33,0.00,,,0.00,0,weatherlink.com 1.10,2013-04-05 03:03:00,
2013-04-04 21:18:00,41.3,15.0,29.81,South,174,0.0,3.0,34,0.00,,,0.00,0,weatherlink.com 1.10,2013-04-05 03:18:00,
2013-04-04 21:33:00,41.4,14.0,29.82,South,174,0.0,0.0,33,0.00,,,0.00,0,weatherlink.com 1.10,2013-04-05 03:33:00,
2013-04-04 21:48:00,38.5,15.0,29.82,ESE,123,1.0,5.0,38,0.00,,,0.00,0,weatherlink.com 1.10,2013-04-05 03:48:00,
2013-04-04 22:03:00,36.4,15.0,29.81,SE,126,3.0,5.0,41,0.00,,,0.00,0,weatherlink.com 1.10,2013-04-05 04:03:00,
2013-04-04 22:18:00,35.8,15.0,29.81,ESE,123,2.0,4.0,42,0.00,,,0.00,0,weatherlink.com 1.10,2013-04-05 04:18:00,
2013-04-04 22:33:00,35.2,15.0,29.80,SSE,151,3.0,5.0,44,0.00,,,0.00,0,weatherlink.com 1.10,2013-04-05 04:33:00,
2013-04-04 22:48:00,34.7,16.0,29.80,ESE,116,2.0,4.0,46,0.00,,,0.00,0,weatherlink.com 1.10,2013-04-05 04:48:00,
2013-04-04 23:03:00,34.9,15.0,29.79,ESE,117,2.0,5.0,45,0.00,,,0.00,0,weatherlink.com 1.10,2013-04-05 05:03:00,
2013-04-04 23:18:00,35.3,15.0,29.79,East,94,2.0,3.0,44,0.00,,,0.00,0,weatherlink.com 1.10,2013-04-05 05:18:00,
2013-04-04 23:33:00,35.8,15.0,29.79,East,94,2.0,2.0,42,0.00,,,0.00,0,weatherlink.com 1.10,2013-04-05 05:33:00,
2013-04-04 23:48:00,37.1,15.0,29.78,SSE,161,2.0,3.0,41,0.00,,,0.00,0,weatherlink.com 1.10,2013-04-05 05:48:00,